Weather History for Montevideo, MN

Change the Weather History Date:

Friday, March 1, 2013

  Actual Average Record
Temperature  
Mean Temperature 16 °F -  
Max Temperature 24 °F 36 °F 67 °F (1992)
Min Temperature 8 °F 14 °F -25 °F (1962)
Degree Days  
Heating Degree Days 49    
Moisture  
Dew Point 14 °F    
Average Humidity 90    
Maximum Humidity 100    
Minimum Humidity 74    
Precipitation  
Precipitation 0.00 in - - ()
Sea Level Pressure  
Sea Level Pressure 30.35 in    
Wind  
Wind Speed 6 mph (NNE)    
Max Wind Speed 10 mph    
Max Gust Speed -    
Visibility 10 miles    
Events      
Averages and records for this station are not official NWS values.
T = Trace of Precipitation, MM = Missing Value Source: NWS Daily Summary

Daily Weather History Graph

Daily Weather History Graph

Search for Another Location

Airport:

Trip Planner

Search our weather history database for the weather conditions in past years. The results will help you decide how hot, cold, wet, or windy it might be!

Date:

Astronomy

Mar. 01, 2013 Rise Set
Actual Time 7:00 AM CST 6:10 PM CST
Civil Twilight 6:30 AM CST 6:40 PM CST
Nautical Twilight 5:56 AM CST 7:14 PM CST
Astronomical Twilight 5:22 AM CST 7:48 PM CST
Moon 11:00 PM CST (3/1) 8:34 AM CST (3/1)
Length of Visible Light 12h 09m
Length of Day
11h 10m
Waning Gibbous, 83% of the Moon is Illuminated
Mar 1
Waning Gibbous
Mar 4
Last Quarter
Mar 11
New
Mar 19
First Quarter
Mar 27
Full

Hourly Weather History & Observations

Time (CST) Temp. Windchill Dew Point Humidity Pressure Visibility Wind Dir Wind Speed Gust Speed Precip Events Conditions
12:14 AM 17.6 °F 9.3 °F 17.6 °F 100% 30.25 in 10.0 mi North 5.8 mph - N/A   Clear
12:34 AM 17.6 °F 8.2 °F 15.8 °F 93% 30.26 in 10.0 mi North 6.9 mph - N/A   Clear
12:54 AM 17.6 °F 9.3 °F 15.8 °F 93% 30.26 in 10.0 mi North 5.8 mph - N/A   Clear
1:14 AM 15.8 °F 6.1 °F 15.8 °F 100% 30.26 in 10.0 mi North 6.9 mph - N/A   Mostly Cloudy
1:34 AM 17.6 °F 9.3 °F 15.8 °F 93% 30.26 in 10.0 mi North 5.8 mph - N/A   Overcast
2:14 AM 17.6 °F 7.3 °F 15.8 °F 93% 30.27 in 10.0 mi NE 8.1 mph - N/A   Overcast
2:34 AM 17.6 °F 7.3 °F 15.8 °F 93% 30.28 in 10.0 mi NNE 8.1 mph - N/A   Overcast
2:53 AM 17.6 °F 6.4 °F 15.8 °F 93% 30.27 in 10.0 mi NNE 9.2 mph - N/A   Overcast
3:34 AM 15.8 °F 7.2 °F 12.2 °F 86% 30.28 in 10.0 mi NNE 5.8 mph - N/A   Mostly Cloudy
4:14 AM 12.2 °F 2.9 °F 10.4 °F 92% 30.29 in 10.0 mi ENE 5.8 mph - N/A   Mostly Cloudy
4:34 AM 12.2 °F 2.9 °F 10.4 °F 92% 30.29 in 10.0 mi NE 5.8 mph - N/A   Mostly Cloudy
4:54 AM 12.2 °F 4.3 °F 10.4 °F 92% 30.30 in 10.0 mi North 4.6 mph - N/A   Scattered Clouds
5:14 AM 10.4 °F 2.2 °F 10.4 °F 100% 30.31 in 10.0 mi North 4.6 mph - N/A   Clear
5:34 AM 10.4 °F 2.2 °F 10.4 °F 100% 30.31 in 10.0 mi North 4.6 mph - N/A   Scattered Clouds
5:54 AM 10.4 °F 2.2 °F 10.4 °F 100% 30.32 in 10.0 mi North 4.6 mph - N/A   Mostly Cloudy
6:14 AM 10.4 °F 2.2 °F 8.6 °F 92% 30.32 in 10.0 mi NNE 4.6 mph - N/A   Overcast
6:34 AM 10.4 °F 2.2 °F 8.6 °F 92% 30.32 in 10.0 mi NE 4.6 mph - N/A   Overcast
6:54 AM 8.6 °F -1.3 °F 8.6 °F 100% 30.33 in 10.0 mi North 5.8 mph - N/A   Overcast
7:14 AM 10.4 °F 0.8 °F 8.6 °F 92% 30.33 in 10.0 mi NNE 5.8 mph - N/A   Overcast
7:34 AM 10.4 °F - 8.6 °F 92% 30.34 in 10.0 mi Calm Calm - N/A   Overcast
7:54 AM 8.6 °F -1.3 °F 8.6 °F 100% 30.34 in 10.0 mi North 5.8 mph - N/A   Overcast
8:14 AM 10.4 °F 0.8 °F 8.6 °F 92% 30.35 in 10.0 mi North 5.8 mph - N/A   Overcast
8:34 AM 12.2 °F 2.9 °F 10.4 °F 92% 30.35 in 10.0 mi NE 5.8 mph - N/A   Overcast
8:54 AM 14.0 °F 2.9 °F 12.2 °F 93% 30.36 in 10.0 mi NE 8.1 mph - N/A   Mostly Cloudy
9:14 AM 15.8 °F 5.1 °F 12.2 °F 86% 30.36 in 10.0 mi NE 8.1 mph - N/A   Scattered Clouds
9:34 AM 17.6 °F 8.2 °F 14.0 °F 86% 30.37 in 10.0 mi NE 6.9 mph - N/A   Mostly Cloudy
9:54 AM 17.6 °F 10.7 °F 15.8 °F 93% 30.37 in 10.0 mi NNE 4.6 mph - N/A   Overcast
10:14 AM 19.4 °F 11.5 °F 15.8 °F 86% 30.38 in 10.0 mi NNE 5.8 mph - N/A   Overcast
10:34 AM 19.4 °F 10.4 °F 15.8 °F 86% 30.38 in 10.0 mi NNE 6.9 mph - N/A   Overcast
10:54 AM 19.4 °F 10.4 °F 15.8 °F 86% 30.38 in 10.0 mi NE 6.9 mph - N/A   Overcast
11:14 AM 21.2 °F 12.6 °F 15.8 °F 80% 30.38 in 10.0 mi NE 6.9 mph - N/A   Mostly Cloudy
11:34 AM 21.2 °F 11.7 °F 17.6 °F 86% 30.37 in 10.0 mi NE 8.1 mph - N/A   Scattered Clouds
12:14 PM 21.2 °F 11.7 °F 17.6 °F 86% 30.37 in 10.0 mi NE 8.1 mph - N/A   Clear
12:34 PM 21.2 °F 12.6 °F 17.6 °F 86% 30.38 in 10.0 mi ENE 6.9 mph - N/A   Clear
1:14 PM 23.0 °F 14.7 °F 17.6 °F 80% 30.37 in 10.0 mi ENE 6.9 mph - N/A   Clear
1:34 PM 23.0 °F 14.7 °F 15.8 °F 74% 30.36 in 10.0 mi NE 6.9 mph - N/A   Clear
1:54 PM 23.0 °F 13.1 °F 17.6 °F 80% 30.36 in 10.0 mi NE 9.2 mph - N/A   Clear
2:14 PM 24.8 °F 14.6 °F 17.6 °F 74% 30.36 in 10.0 mi NE 10.4 mph - N/A   Clear
2:34 PM 24.8 °F 17.9 °F 17.6 °F 74% 30.35 in 10.0 mi NNE 5.8 mph - N/A   Scattered Clouds
2:54 PM 24.8 °F 15.3 °F 17.6 °F 74% 30.35 in 10.0 mi NNE 9.2 mph - N/A   Scattered Clouds
3:14 PM 23.0 °F 13.9 °F 17.6 °F 80% 30.36 in 10.0 mi North 8.1 mph - N/A   Clear
3:34 PM 24.8 °F 15.3 °F 17.6 °F 74% 30.36 in 10.0 mi NNE 9.2 mph - N/A   Clear
4:14 PM 24.8 °F 16.1 °F 17.6 °F 74% 30.36 in 10.0 mi North 8.1 mph - N/A   Clear
4:34 PM 23.0 °F 13.1 °F 17.6 °F 80% 30.36 in 10.0 mi NNE 9.2 mph - N/A   Clear
4:54 PM 23.0 °F 12.4 °F 17.6 °F 80% 30.36 in 10.0 mi North 10.4 mph - N/A   Clear
5:14 PM 23.0 °F 13.9 °F 17.6 °F 80% 30.37 in 10.0 mi North 8.1 mph - N/A   Clear
5:34 PM 21.2 °F 12.6 °F 17.6 °F 86% 30.37 in 10.0 mi North 6.9 mph - N/A   Clear
5:54 PM 21.2 °F 13.6 °F 17.6 °F 86% 30.37 in 10.0 mi North 5.8 mph - N/A   Clear
6:14 PM 19.4 °F 11.5 °F 15.8 °F 86% 30.38 in 10.0 mi North 5.8 mph - N/A   Clear
6:34 PM 19.4 °F 12.8 °F 15.8 °F 86% 30.38 in 10.0 mi North 4.6 mph - N/A   Clear
6:54 PM 17.6 °F 10.7 °F 15.8 °F 93% 30.39 in 10.0 mi North 4.6 mph - N/A   Clear
7:14 PM 17.6 °F 10.7 °F 15.8 °F 93% 30.38 in 10.0 mi North 4.6 mph - N/A   Clear
7:34 PM 17.6 °F 10.7 °F 15.8 °F 93% 30.38 in 10.0 mi North 4.6 mph - N/A   Clear
8:14 PM 15.8 °F 10.2 °F 15.8 °F 100% 30.37 in 10.0 mi North 3.5 mph - N/A   Clear
8:34 PM 15.8 °F 8.6 °F 14.0 °F 93% 30.38 in 10.0 mi NNW 4.6 mph - N/A   Clear
8:54 PM 14.0 °F 6.5 °F 12.2 °F 93% 30.38 in 10.0 mi North 4.6 mph - N/A   Clear
9:14 PM 14.0 °F 6.5 °F 12.2 °F 93% 30.38 in 10.0 mi North 4.6 mph - N/A   Clear
9:34 PM 14.0 °F 8.2 °F 12.2 °F 93% 30.38 in 10.0 mi NNW 3.5 mph - N/A   Clear
9:54 PM 12.2 °F - 12.2 °F 100% 30.37 in 7.0 mi Calm Calm - N/A   Clear
10:14 PM 12.2 °F 2.9 °F 12.2 °F 100% 30.39 in 7.0 mi NNW 5.8 mph - N/A   Clear
10:34 PM 12.2 °F 4.3 °F 12.2 °F 100% 30.38 in 7.0 mi NNW 4.6 mph - N/A   Clear
10:54 PM 12.2 °F 2.9 °F 12.2 °F 100% 30.38 in 7.0 mi NNW 5.8 mph - N/A   Clear
11:14 PM 12.2 °F 2.9 °F 10.4 °F 92% 30.38 in 7.0 mi NNW 5.8 mph - N/A   Clear
11:34 PM 10.4 °F - 10.4 °F 100% 30.36 in 5.0 mi Calm Calm - N/A   Clear
11:54 PM 10.4 °F 4.0 °F 10.4 °F 100% 30.35 in 5.0 mi WNW 3.5 mph - N/A   Clear